AirNav   Everest Fuels
 
 1018 users online  

3J6 Davis Field Airport
Folkston, Georgia, USA

GOING TO FOLKSTON?


FAA INFORMATION EFFECTIVE 26 JANUARY 2023

Location

FAA Identifier: 3J6
Lat/Long: 30-47-46.9000N 082-01-41.4000W
30-47.781667N 082-01.690000W
30.7963611,-82.0281667
(estimated)
Elevation: 68 ft. / 21 m (estimated)
Variation: 03W (1985)
From city: 3 miles SW of FOLKSTON, GA
Time zone: UTC -5 (UTC -4 during Daylight Saving Time)
Zip code: 31537

Airport Operations

Airport use: Open to the public
Activation date: 11/1962
Control tower: no
ARTCC: JACKSONVILLE CENTER
FSS: MACON FLIGHT SERVICE STATION
NOTAMs facility: MCN (NOTAM-D service available)
Attendance: UNATNDD
Wind indicator: lighted
Segmented circle: yes
Lights: MIRL RWY 01/19 PRESET LOW INTST DUSK-2030; AFT 2030 ACTVT - CTAF.
Beacon: white-green (lighted land airport)
Operates sunset to sunrise.

Airport Communications

CTAF: 122.9

Nearby radio navigation aids

VOR radial/distance  VOR name  Freq  Var
TAYr060/32.2TAYLOR VORTAC112.9003W
SSIr247/33.6BRUNSWICK VORTAC109.8004W
CRGr319/38.3CRAIG VORTAC114.5003W
AYSr136/39.3WAYCROSS VORTAC110.2000E

Airport Services

Parking: tiedowns
Airframe service: NONE
Powerplant service: NONE
Bottled oxygen: NONE
Bulk oxygen: NONE

Runway Information

Runway 1/19

Dimensions: 2500 x 50 ft. / 762 x 15 m
Surface: asphalt, in good condition
Weight bearing capacity: 
Single wheel: 12.5
Runway edge lights: medium intensity
RUNWAY 1  RUNWAY 19
Latitude: 30-47.575833N30-47.988333N
Longitude: 082-01.694833W082-01.685000W
Traffic pattern: rightleft
Markings: basic, in good conditionbasic, in good condition
Obstructions: 42 ft. trees, 201 ft. from runway, 123 ft. left of centerline24 ft. trees, 584 ft. from runway, 116 ft. left of centerline, 16:1 slope to clear

Airport Ownership and Management from official FAA records

Ownership: Publicly-owned
Owner: CHARLTON COUNTY
68 KINGSLAND DR. STE B
FOLKSTON, GA 31537
Phone 912-496-2549
Manager: HAMPTON RAULERSON
68 KINSLAND DR., STE B
FOLKSTON, GA 31537
Phone (912) 886-3260

Airport Operational Statistics

Aircraft based on the field: 8
Single engine airplanes: 8
    
Aircraft operations: avg 61/week *
62% local general aviation
31% transient general aviation
6% military
* for 12-month period ending 31 December 2021

Additional Remarks

LGTD 272 FT AGL TOWER 1000 FT WEST.
FOR CD CTC JACKSONVILLE APCH AT 904-741-0284.

Instrument Procedures

There are no published instrument procedures at 3J6.

Some nearby airports with instrument procedures:

KJAX - Jacksonville International Airport (25 nm SE)
4J1 - Brantley County Airport (25 nm N)
KFHB - Fernandina Beach Municipal Airport (31 nm E)
KAYS - Waycross-Ware County Airport (33 nm NW)
KHEG - Herlong Recreational Airport (33 nm S)
 
Loc | Ops | Rwys | IFR | FBO | Links
Com | Nav | Svcs | Stats | Notes
Area around 3J6 (Davis Field Airport)
 
Road maps at: MapQuest Bing Google
 
Aerial photo
WARNING: Photo may not be current or correct
Aerial photo of 3J6 (Davis Field Airport)
Do you have a better or more recent aerial photo of Davis Field Airport that you would like to share? If so, please send us your photo.

 
Sectional chart

 
Airport distance calculator
Flying to Davis Field Airport? Find the distance to fly.

From to 3J6

Sunrise and sunset
Times for 28-Jan-2023
 Local
(UTC-5)
 Zulu
(UTC)
Morning civil twilight06:5811:58
Sunrise07:2312:23
Sunset17:5922:59
Evening civil twilight18:2523:25

Current date and time
Zulu (UTC)  29-Jan-2023 00:18:12
Local (UTC-5)  28-Jan-2023 19:18:12
 
METAR
KJAX 
25nm SE 
282356Z 02004KT 10SM BKN060 BKN250 12/06 A3037 RMK AO2 SLP285 T01170056 10161 20117 53006
KFHB 
31nm E 
282355Z AUTO 02005KT 10SM SCT060 OVC075 12/06 A3038 RMK AO2
KHEG 
33nm S 
282355Z AUTO 03008KT 10SM OVC050 13/05 A3039 RMK AO2
KAYS 
33nm NW 
282355Z AUTO 00000KT 10SM CLR 09/02 A3038 RMK AO2 T00880016 10162 20085
KVQQ 
36nm S 
282350Z VRB04KT 10SM OVC060 13/07 A3037
KCRG 
38nm SE 
282353Z 01006KT 10SM BKN055 OVC070 13/07 A3037 RMK AO2 SLP284 T01280067 10156 20128 53003
KSSI 
39nm NE 
282353Z AUTO VRB03KT 10SM CLR 10/03 A3038 RMK AO2 SLP290 T01000033 10144 20100 53004
KNIP 
39nm SE 
282353Z 02008KT 10SM BKN050 OVC090 13/07 A3038 RMK AO2 SLP281 T01330067 10161 20128 53004
KBQK 
40nm NE 
282355Z AUTO 04003KT 10SM CLR 08/02 A3039 RMK AO2 T00810018 10151 20076 401511031
KNRB 
40nm SE 
282352Z AUTO 01008KT 10SM BKN060 OVC075 14/08 A3037 RMK AO2 SLP283 T01390083 10156 20139 53003
TAF
KJAX 
25nm SE 
282146Z 2822/2918 05011KT P6SM SCT060 BKN250 FM290000 01003KT P6SM BKN050 BKN250 FM290500 00000KT P6SM BKN040 BKN250 FM291400 12005KT P6SM SCT040 BKN250
NOTAMs
Click for the latest NOTAMs
NOTAMs are issued by the DoD/FAA and will open in a separate window not controlled by AirNav.

 

 
 

Would you like to see your business listed on this page?

 If your business provides an interesting product or service to pilots, flight crews, aircraft, or users of the Davis Field Airport, you should consider listing it here.  To start the listing process, click on the button below
 
Add a business
 

Other Pages about Davis Field Airport

Update a link
 
Copyright © AirNav, LLC. All rights reserved. Privacy Policy  Contact